This is the latest recevied weather packets stored in our database for station/object SR4DIG-13. If no packets are shown the sender has not sent any weather packets the latest 10 day(s).
| Time | Temp. | Humidity | Pressure | Rain* | Wind** | Luminosity | Snow |
|---|---|---|---|---|---|---|---|
| 1787894376 | 12.78° C | 78% | 1024.6 hPa | 0 mm | - | - | - |
| 1787894044 | 16.11° C | 68% | 1024.6 hPa | 0 mm | - | - | - |
| 1787893856 | 12.78° C | 78% | 1024.6 hPa | 0 mm | - | - | - |
| 1787893837 | 15.56° C | 69% | 1024.8 hPa | 0 mm | - | - | - |
| 1787893668 | 15.56° C | 69% | 1024.8 hPa | 0 mm | - | - | - |
| 1787893571 | 15.56° C | 69% | 1024.8 hPa | 0 mm | - | - | - |
| 1787893480 | 15.56° C | 71% | 1024.9 hPa | 0 mm | - | - | - |
| 1787893389 | 15.56° C | 71% | 1024.9 hPa | 0 mm | - | - | - |
| 1787893270 | 15.56° C | 71% | 1024.9 hPa | 0 mm | - | - | - |
| 1787893087 | 12.22° C | 80% | 1024.8 hPa | 0 mm | - | - | - |
| 1787892969 | 15° C | 72% | 1024.6 hPa | 0 mm | - | - | - |
| 1787892747 | 11.67° C | 81% | 1024.6 hPa | 0 mm | - | - | - |
| 1787892668 | 13.89° C | 74% | 1024.7 hPa | 0 mm | - | - | - |
| 1787892551 | 13.33° C | 74% | 1024.7 hPa | 0 mm | - | - | - |
| 1787892367 | 13.33° C | 74% | 1024.7 hPa | 0 mm | - | - | - |
| 1787892096 | 11.67° C | 82% | 1024.5 hPa | 0 mm | - | - | - |
| 1787892071 | 13.33° C | 74% | 1024.5 hPa | 0 mm | - | - | - |
| 1787891765 | 13.33° C | 75% | 1024.8 hPa | 0 mm | - | - | - |
| 1787891464 | 13.33° C | 76% | 1024.6 hPa | 0 mm | - | - | - |
| 1787891344 | 12.78° C | 78% | 1024.6 hPa | 0 mm | - | - | - |
| 1787891212 | 12.78° C | 78% | 1024.6 hPa | 0 mm | - | - | - |
| 1787891163 | 12.78° C | 78% | 1024.6 hPa | 0 mm | - | - | - |
| 1787890862 | 12.78° C | 78% | 1024.6 hPa | 0 mm | - | - | - |
| 1787890562 | 12.22° C | 79% | 1024.7 hPa | 0 mm | - | - | - |
| 1787890414 | 12.22° C | 80% | 1024.8 hPa | 0 mm | - | - | - |
* Rain latest hour (hover to see other rain measurements)
** Current wind speed in m/s (hover to see current wind gust speed)